TimeMST,TemperatureF,Dew PointF,Humidity,Sea Level PressureIn,VisibilityMPH,Wind Direction,Wind SpeedMPH,Gust SpeedMPH,PrecipitationIn,Events,Conditions,WindDirDegrees,DateUTC
12:55 AM,46.4,14.0,27,29.64,10.0,SSW,15.0,32.2,N/A,,Scattered Clouds,210,2013-02-20 07:55:00
1:55 AM,44.6,17.6,34,29.64,10.0,SSW,19.6,31.1,N/A,,Clear,210,2013-02-20 08:55:00
2:55 AM,42.8,23.0,46,29.63,10.0,SSW,19.6,29.9,N/A,,Clear,210,2013-02-20 09:55:00
3:55 AM,41.0,26.6,57,29.65,10.0,SW,16.1,27.6,N/A,,Clear,230,2013-02-20 10:55:00
4:55 AM,41.0,26.6,57,29.65,10.0,SW,13.8,26.5,N/A,,Scattered Clouds,230,2013-02-20 11:55:00
5:55 AM,39.2,26.6,61,29.67,10.0,SSW,16.1,25.3,N/A,,Mostly Cloudy,210,2013-02-20 12:55:00
6:55 AM,39.2,24.8,56,29.66,10.0,SSW,10.4,19.6,N/A,,Mostly Cloudy,200,2013-02-20 13:55:00
7:55 AM,39.2,23.0,52,29.69,10.0,SSW,10.4,16.1,N/A,,Mostly Cloudy,210,2013-02-20 14:55:00
8:55 AM,42.8,24.8,49,29.68,10.0,SW,17.3,28.8,N/A,,Unknown,220,2013-02-20 15:55:00
9:55 AM,41.0,26.6,57,29.69,6.0,SW,17.3,23.0,N/A,,Unknown,230,2013-02-20 16:55:00
10:55 AM,44.6,26.6,49,29.68,10.0,South,15.0,24.2,N/A,,Unknown,190,2013-02-20 17:55:00
12:55 PM,46.4,30.2,53,29.60,10.0,South,24.2,29.9,N/A,Rain,Light Rain,180,2013-02-20 19:55:00
1:24 PM,41.0,33.8,76,29.65,5.0,SW,25.3,33.4,N/A,Rain,Light Rain,220,2013-02-20 20:24:00
1:30 PM,39.2,33.8,81,29.69,0.5,West,23.0,42.6,N/A,,Unknown,270,2013-02-20 20:30:00
1:40 PM,32.0,30.2,93,29.70,0.5,West,25.3,42.6,N/A,Snow,Snow,280,2013-02-20 20:40:00
1:55 PM,30.2,30.2,100,29.70,0.2,West,21.9,27.6,N/A,Snow,Heavy Snow,270,2013-02-20 20:55:00
2:55 PM,30.2,28.4,93,29.73,0.2,West,25.3,32.2,N/A,Snow,Heavy Snow,270,2013-02-20 21:55:00
3:13 PM,30.2,26.6,86,29.73,1.0,West,20.7,32.2,0.00,Snow,Light Snow,270,2013-02-20 22:13:00
3:30 PM,-9999,-9999,N/A,-9999,-9999.0,North,-9999.0,-,N/A,,Unknown,0,2013-02-20 22:30:00
3:52 PM,30.2,26.6,86,29.71,0.5,West,15.0,-,0.00,Fog-Snow,Snow,260,2013-02-20 22:52:00
3:56 PM,30.0,27.0,88,29.73,0.2,West,15.0,-,0.00,Fog-Snow,Snow,260,2013-02-20 22:56:00
4:00 PM,30.2,26.6,86,29.72,0.5,WSW,15.0,-,0.00,Fog-Snow,Snow,250,2013-02-20 23:00:00
4:29 PM,32.0,26.6,80,29.74,6.0,West,18.4,-,N/A,,Overcast,260,2013-02-20 23:29:00
4:51 PM,-9999,-9999,N/A,-9999,1.8,West,18.4,-,N/A,,Unknown,260,2013-02-20 23:51:00
4:56 PM,32.0,27.0,82,29.75,2.5,West,16.1,24.2,0.00,Snow,Light Snow,270,2013-02-20 23:56:00
5:03 PM,32.0,26.6,80,29.74,7.0,West,16.1,24.2,0.00,Snow,Light Snow,280,2013-02-21 00:03:00
5:12 PM,32.0,26.6,80,29.74,2.5,West,13.8,-,0.00,Snow,Light Snow,270,2013-02-21 00:12:00
5:24 PM,32.0,28.4,87,29.74,2.5,West,13.8,-,0.00,Snow,Light Snow,260,2013-02-21 00:24:00
6:41 PM,32.0,28.4,87,29.76,1.8,SW,8.1,-,0.00,Snow,Light Snow,220,2013-02-21 01:41:00
6:49 PM,32.0,28.4,87,29.76,1.5,WSW,4.6,-,0.00,Snow,Light Snow,250,2013-02-21 01:49:00
6:56 PM,32.0,28.9,88,29.78,1.8,West,5.8,-,0.00,Snow,Light Snow,270,2013-02-21 01:56:00
7:15 PM,32.0,28.4,87,29.78,1.2,West,9.2,-,N/A,Snow,Light Snow,280,2013-02-21 02:15:00
7:22 PM,-9999,-9999,N/A,-9999,2.5,West,10.4,-,N/A,,Unknown,280,2013-02-21 02:22:00
7:29 PM,32.0,28.4,87,29.78,7.0,West,11.5,-,0.00,Snow,Light Snow,280,2013-02-21 02:29:00
7:56 PM,32.0,28.9,88,29.81,1.0,NW,11.5,-,0.01,Snow,Light Snow,320,2013-02-21 02:56:00
8:05 PM,30.2,30.2,100,29.80,0.8,NW,11.5,-,N/A,Snow,Light Snow,310,2013-02-21 03:05:00
8:12 PM,-9999,-9999,N/A,-9999,1.2,NW,11.5,-,N/A,,Unknown,310,2013-02-21 03:12:00
8:44 PM,30.2,30.2,100,29.82,1.0,NW,8.1,-,0.00,Snow,Light Snow,310,2013-02-21 03:44:00
9:02 PM,30.2,30.2,100,29.82,1.8,West,12.7,-,0.00,Snow,Light Snow,280,2013-02-21 04:02:00
9:15 PM,32.0,28.4,87,29.83,9.0,West,17.3,-,0.00,,Overcast,280,2013-02-21 04:15:00
9:56 PM,32.0,28.0,85,29.87,10.0,West,15.0,-,0.00,,Overcast,280,2013-02-21 04:56:00
10:56 PM,32.0,25.0,75,29.88,10.0,West,16.1,-,N/A,,Clear,260,2013-02-21 05:56:00